OP1 (TYVAK-0820) (52741 NORAD) Tracking and Keplerian Element Data
This shows tracking and keplerian element data for the satellite.
Feedback or suggestion? Click here.
Element | Value |
Catalog | 52741 |
Name | OP1 (TYVAK-0820) |
Epoch Orbit | 712 |
Epoch Day | 192.86870613 |
Epoch Year | 2022 |
RAAN | 307.1961 |
Inclination | 97.5251 |
Eccentricity | 0.0011939 |
Argument of Perigee | 94.1057 |
Mean Anonmoly | 266.1538 |
Mean Motion | 15.12256944 |
Decay Rate | 6.733E-05 |
L1 | 1 52741U 22057K 22192.86870613 .00006733 00000+0 39236-3 0 9994 |
L2 | 2 52741 97.5251 307.1961 0011939 94.1057 266.1538 15.12256944 7126 |
Live tracking and technical data element details for OP1 (TYVAK-0820) (NORAD 52741). OP1 (TYVAK-0820) can be tracked NOW for your location showing map with azimuth and elevation plus other details from your city location.
Track the satellite on the map from your city or location and see movement details for azimuth, elevation, latitude, longitude, range, height, and movement on the map or in text.
IsCatalogInMostPopularTable: catalog: 52741, numindb: 4
Update: records affected: 1
GetName: 52741 OP1 (TYVAK-0820)
Hit Count: updated at: Sun, 14 Aug 2022 01:36:26 GMT